Printer-friendly version

IAU Minor Planet Center

Minor Planet Center

MPEC 2002-D32 : 2001 FP185, 2001 KA77, 2001 KB77, 2001 KC77

The following Minor Planet Electronic Circular may be linked-to from your own Web pages, but must not otherwise be redistributed electronically.


Read MPEC 2002-D31 Read MPEC 2002-D33


M.P.E.C. 2002-D32                                Issued 2002 Feb. 25, 04:06 UT

     The Minor Planet Electronic Circulars contain information on unusual
         minor planets and routine data on comets.  They are published
   on behalf of Commission 20 of the International Astronomical Union by the
          Minor Planet Center, Smithsonian Astrophysical Observatory,
                          Cambridge, MA 02138, U.S.A.

             Prepared using the Tamkin Foundation Computer Network

                              MPC@CFA.HARVARD.EDU
          URL http://cfa-www.harvard.edu/iau/mpc.html  ISSN 1523-6714

                  2001 FP185, 2001 KA77, 2001 KB77, 2001 KC77

                 Revision to MPEC 2001-M36, 2001-N01, 2001-N03

Observations:
     K01FI5P  C2002 02 22.62537 12 10 13.94 +00 17 15.6          20.7 R      568
     K01FI5P  C2002 02 22.64815 12 10 13.82 +00 17 17.1          20.7 R      568
     K01FI5P  C2002 02 23.62434 12 10 09.84 +00 17 57.2          20.7 R      568
     K01K77A  C2002 02 22.63887 16 35 26.15 -19 55 44.0                      568
     K01K77A  C2002 02 23.63600 16 35 27.50 -19 55 42.2          21.7 R      568
     K01K77B  C2002 02 22.63036 14 34 37.36 -16 14 37.9          21.9 R      568
     K01K77B  C2002 02 23.62863 14 34 35.97 -16 14 26.4          22.0 R      568
     K01K77D  C2002 02 22.64292 16 43 37.66 -20 10 17.4          21   R      568
     K01K77D  C2002 02 23.63953 16 43 39.98 -20 10 18.5                      568

Observer details:
568 Mauna Kea.  Observers Y. R. Fernandez, S. S. Sheppard.  Measurer S. S.
    Sheppard.  2.2-m University of Hawaii reflector + CCD.

Orbital elements:
2001 FP185
Epoch 2001 Oct. 18.0 TT = JDT 2452200.5                 MPC
M 359.74021              (2000.0)            P               Q
n   0.00030687     Peri.    7.23723     -0.99319743     +0.11629738
a 217.6896017      Node   179.34963     -0.11460282     -0.98512444
e   0.8427248      Incl.   30.79779     +0.02061680     +0.12650990
P  3210            H    6.2           G   0.15           U   4
Residuals in seconds of arc
K013Q  695  0.1-  0.2-    K014Q  688  0.3-  0.7-    K0168  304  0.0   0.3+
K013Q  695  0.2-  0.1-    K014T  695  0.0   0.3+    K0169  304  0.0   0.3+
K014P  688  0.0   0.3+    K014T  695  0.1+  0.1+    K022M  568  0.2+  0.2-
K014P  688  0.3+  0.3+    K015L  807  0.1+  0.3-    K022M  568  0.2-  0.3+
K014Q  688  0.4+  0.1+    K015M  807  0.3-  0.3-    K022N  568  0.0   0.2-

2001 KA77
Epoch 2001 Oct. 18.0 TT = JDT 2452200.5                 MPC
M 248.08930              (2000.0)            P               Q
n   0.00305051     Peri.  130.40520     +0.97177395     -0.15464990
a  47.0855136      Node   239.19415     +0.09795140     +0.95149164
e   0.0866690      Incl.   11.97115     +0.21461805     +0.26598322
P 323              H    4.9           G   0.15           U   7
Residuals in seconds of arc
K015O  807  0.0   0.0     K016J  688  0.1-  0.7+    K018K  807  0.1+  0.3+
K015O  807  0.1+  0.1-    K017O  568  0.1+  0.0     K018L  807  0.0   0.2+
K016A  304  0.0   0.1-    K017O  568  0.0   0.1-    K022M  568  0.1-  0.0
K016A  304  0.1-  0.1+    K017P  568  0.2+  0.0     K022N  568  0.2+  0.2-
K016J  688  0.2+  1.0-    K018J  807  0.0   0.2+

2001 KB77
Epoch 2001 Oct. 18.0 TT = JDT 2452200.5                 MPC
M 326.68337              (2000.0)            P               Q
n   0.00400784     Peri.   52.50721     +0.07068849     +0.97607035
a  39.2520389      Node   222.99460     -0.98364407     +0.03396841
e   0.2742128      Incl.   17.55152     -0.16567279     +0.21478553
P 246              H    7.1           G   0.15           U   5
Residuals in seconds of arc
K015N  807  0.1-  0.1-    K016A  304  0.0   0.3+    K018K  807  0.2+  0.0
K015N  807  0.1+  0.1-    K018J  807  0.1-  0.2-    K022M  568  0.0   0.0
K016A  304  0.0   0.2+    K018K  807  0.1-  0.2-    K022N  568  0.0   0.1+

2001 KD77
Epoch 2001 Oct. 18.0 TT = JDT 2452200.5                 MPC
M  22.76606              (2000.0)            P               Q
n   0.00399255     Peri.   82.15069     -0.75137714     +0.65937085
a  39.3522422      Node   139.09595     -0.61985584     -0.69189715
e   0.1149469      Incl.    2.25275     -0.22629876     -0.29412313
P 247              H    5.4           G   0.15           U   6
Residuals in seconds of arc
K015O  807  0.1-  0.2-    K016J  688  0.9+  0.0     K018L  807  0.0   0.2-
K015O  807  0.0   0.2-    K017M  688  0.2-  0.2-    K022M  568  0.0   0.0
K0169  304  0.1+  0.0     K017M  688  0.1+  0.8+    K022N  568  0.1-  0.2-
K0169  304  0.1-  0.1-    K018J  807  0.1+  0.2-
K016J  688  0.8-  0.1-    K018K  807  0.0   0.7+

Ephemerides:
2001 FP185               a,e,i =217.69, 0.84, 31                 q = 34.237
Date    TT    R. A. (2000) Decl.     Delta      r     Elong.  Phase     V
2002 02 25    12 10.07   +00 18.9   33.400   34.292   154.0     0.7    21.6
2002 03 07    12 09.33   +00 26.2   33.334   34.290   164.2     0.5    21.6
2002 03 17    12 08.53   +00 33.7   33.299   34.289   174.3     0.2    21.5
2002 03 27    12 07.72   +00 41.3   33.293   34.287   175.2     0.1    21.5
2002 04 06    12 06.91   +00 48.8   33.317   34.286   165.2     0.4    21.6
2002 04 16    12 06.16   +00 55.8   33.371   34.284   155.2     0.7    21.6
2002 04 26    12 05.48   +01 02.3   33.452   34.283   145.2     1.0    21.6
2002 05 06    12 04.91   +01 08.0   33.556   34.282   135.4     1.2    21.7
2002 05 16    12 04.47   +01 12.7   33.682   34.280   125.6     1.4    21.7
2002 05 26    12 04.17   +01 16.5   33.825   34.279   115.9     1.5    21.7
2002 06 05    12 04.04   +01 19.1   33.980   34.278   106.2     1.6    21.7
2002 06 15    12 04.08   +01 20.6   34.143   34.276    96.7     1.7    21.8
2002 06 25    12 04.29   +01 20.9   34.310   34.275    87.2     1.7    21.8
2002 07 05    12 04.68   +01 20.1   34.475   34.274    77.8     1.7    21.8
2002 07 15    12 05.23   +01 18.2   34.634   34.272    68.4     1.6    21.8
2002 07 25    12 05.94   +01 15.3   34.783   34.271    59.0     1.5    21.8
2002 08 04    12 06.79   +01 11.5   34.918   34.270    49.7     1.3    21.8
2002 08 14    12 07.76   +01 07.0   35.035   34.269    40.3     1.1    21.8
2002 08 24    12 08.85   +01 01.8   35.130   34.268    31.0     0.9    21.7

2001 KA77                a,e,i = 47.09, 0.09, 12                 q = 43.005
Date    TT    R. A. (2000) Decl.     Delta      r     Elong.  Phase     V
2002 02 25    16 35.49   -19 55.6   48.932   48.873    86.0     1.2    22.0
2002 03 07    16 35.61   -19 55.1   48.758   48.871    96.0     1.2    22.0
2002 03 17    16 35.58   -19 54.3   48.586   48.869   106.0     1.1    21.9
2002 03 27    16 35.41   -19 53.1   48.423   48.868   115.9     1.1    21.9
2002 04 06    16 35.11   -19 51.8   48.273   48.866   125.9     1.0    21.9
2002 04 16    16 34.68   -19 50.2   48.140   48.864   135.8     0.8    21.9
2002 04 26    16 34.15   -19 48.4   48.028   48.862   145.7     0.7    21.9
2002 05 06    16 33.54   -19 46.6   47.941   48.860   155.5     0.5    21.8
2002 05 16    16 32.86   -19 44.6   47.880   48.858   165.2     0.3    21.8
2002 05 26    16 32.14   -19 42.7   47.848   48.856   174.7     0.1    21.8
2002 06 05    16 31.41   -19 40.7   47.844   48.855   174.6     0.1    21.8
2002 06 15    16 30.70   -19 38.9   47.870   48.853   165.2     0.3    21.8
2002 06 25    16 30.01   -19 37.2   47.924   48.851   155.5     0.5    21.8
2002 07 05    16 29.39   -19 35.8   48.004   48.849   145.9     0.7    21.9
2002 07 15    16 28.86   -19 34.5   48.108   48.847   136.2     0.8    21.9
2002 07 25    16 28.42   -19 33.5   48.233   48.845   126.6     1.0    21.9
2002 08 04    16 28.10   -19 32.9   48.375   48.843   116.9     1.1    21.9
2002 08 14    16 27.90   -19 32.5   48.530   48.841   107.3     1.1    21.9
2002 08 24    16 27.85   -19 32.5   48.694   48.840    97.7     1.2    22.0
2002 09 03    16 27.93   -19 32.8   48.861   48.838    88.1     1.2    22.0
2002 09 13    16 28.15   -19 33.4   49.028   48.836    78.4     1.2    22.0
2002 09 23    16 28.52   -19 34.3   49.189   48.834    68.7     1.1    22.0
2002 10 03    16 29.01   -19 35.4   49.339   48.832    59.1     1.0    22.0
2002 10 13    16 29.63   -19 36.8   49.474   48.830    49.3     0.9    22.0
2002 10 23    16 30.35   -19 38.3   49.591   48.828    39.6     0.7    21.9

